(458101) = 2005 BW6 = 2010 CS11

Discovered at Catalina on 2005-01-06 by CSS.

Orbit

Orbit type: Main Belt

Note: WebGL enabled browser required.

epoch2023-09-13.0
epoch JD2460200.5
perihelion date2021-04-16.11416
perihelion JD2459320.61416
argument of perihelion (°)356.93425
ascending node (°)98.63472
inclination (°)13.62203
eccentricity0.1677736
perihelion distance (AU)2.5878924
Tisserand w.r.t. Jupiter3.2
ΔV w.r.t. Earth (km/sec)10.9
semimajor axis (AU)3.1096013
mean anomaly (°)158.15142
mean daily motion (°/day)0.17974080
aphelion distance (AU)3.631
period (years)5.48
P-vector [x]-0.09853137
P-vector [y]0.91795473
P-vector [z]0.38425341
Q-vector [x]-0.96750925
Q-vector [y]-0.17871568
Q-vector [z]0.17884784
absolute magnitude16.2
phase slope0.15
uncertainty0
referenceMPEC 2023-N43
observations used252
oppositions11
arc length (days)6757
first opposition used2005
last opposition used2023
residual rms (arc-secs)0.66
perturbers coarse indicatorM-v
perturbers precise indicator003Ek
first observation date used2005-01-06.0
last observation date used2023-07-08.0
computer nameMPCLINUX
JD of orbit computation2457436.756761
perihelion JD uncertainty (days)1.0549E-04
argument of perihelion uncertainty (°)3.2714E-05
ascending node uncertainty (°)2.3696E-05
inclination uncertainty (°)1.0653E-05
eccentricity uncertainty 9.4629E-08
perihelion distance uncertainty (AU)2.9574E-07
Minimum Orbit Intersection Distances (in AU)
for orbit epoch: 2460000.5, reference: E2023-N43
Mercury2.27944
Venus1.87018
Earth1.60519
Mars0.98564
Jupiter1.56439
Saturn6.44805
Uranus15.4614
Neptune26.6777

Observations

258 total observations over interval: 2005 01 06.33627 – 2023 07 08.371020
These data are available for download (format description).

Date (UT) J2000 RA J2000 Dec Magn Location Ref
2005 01 06.33627 08 22 57.37 +25 51 15.5 18.9 R 703 – Catalina Sky Survey MPS 346278
2005 01 06.34271 08 22 57.19 +25 51 17.8 19.1 R 703 – Catalina Sky Survey MPS 346278
2005 01 06.34917 08 22 56.75 +25 51 19.6 18.4 R 703 – Catalina Sky Survey MPS 346278
2005 01 06.35562 08 22 56.39 +25 51 23.1 18.4 R 703 – Catalina Sky Survey MPS 346278
2005 01 16.34233 08 14 39.82 +27 14 36.9 19.6   704 – Lincoln Laboratory ETS, New Mexico MPS 124869
2005 01 16.35542 08 14 39.05 +27 14 42.5 19.4   704 – Lincoln Laboratory ETS, New Mexico MPS 124869
2005 01 16.36844 08 14 38.45 +27 14 49.1 20.1   704 – Lincoln Laboratory ETS, New Mexico MPS 124869
2005 01 16.38195 08 14 37.58 +27 14 55.7 19.8   704 – Lincoln Laboratory ETS, New Mexico MPS 124869
2005 01 17.28692 08 13 49.91 +27 22 09.3 19.7   704 – Lincoln Laboratory ETS, New Mexico MPS 124869
2005 01 17.30150 08 13 49.09 +27 22 16.9 19.6   704 – Lincoln Laboratory ETS, New Mexico MPS 124869
2005 01 17.31606 08 13 48.26 +27 22 21.3 19.8   704 – Lincoln Laboratory ETS, New Mexico MPS 124869
2005 01 17.33023 08 13 47.53 +27 22 29.0 19.6   704 – Lincoln Laboratory ETS, New Mexico MPS 124869
2005 01 19.34306 08 12 00.42 +27 38 18.5 19.2   704 – Lincoln Laboratory ETS, New Mexico MPS 124869
2005 01 19.35703 08 11 59.66 +27 38 26.2 19.6   704 – Lincoln Laboratory ETS, New Mexico MPS 124869
2005 01 19.37053 08 11 58.87 +27 38 31.5 19.5   704 – Lincoln Laboratory ETS, New Mexico MPS 124869
2009 11 22.32432 03 59 12.48 +06 28 37.5 19.7 V 703 – Catalina Sky Survey MPS 623305
2009 11 22.33095 03 59 12.12 +06 28 39.9 19.5 V 703 – Catalina Sky Survey MPS 623305
2009 11 22.33750 03 59 11.76 +06 28 39.3 19.4 V 703 – Catalina Sky Survey MPS 623305
2009 11 22.34416 03 59 11.32 +06 28 39.8 19.5 V 703 – Catalina Sky Survey MPS 623305
2009 11 22.35073 03 59 10.93 +06 28 41.2 20.1 V 703 – Catalina Sky Survey MPS 623305
2010 02 09.667539 03 41 48.38 +14 05 10.7   C51 – WISE MPS 313708
2010 02 09.66754 03 41 48.39 +14 05 10.0   C51 – WISE MPS 313708
2010 02 09.799844 03 41 54.20 +14 06 14.2   C51 – WISE MPS 332172
2010 02 09.932148 03 41 59.97 +14 07 19.4   C51 – WISE MPS 375347
2010 02 09.932275 03 41 59.96 +14 07 19.3   C51 – WISE MPS 313708
2010 02 10.064579 03 42 05.83 +14 08 23.9   C51 – WISE MPS 313708
2010 02 10.130668 03 42 08.79 +14 08 56.4   C51 – WISE MPS 313708
2010 02 10.196883 03 42 11.72 +14 09 29.0   C51 – WISE MPS 313708
2010 02 10.263100 03 42 14.62 +14 10 00.8   C51 – WISE MPS 332172
2010 02 10.329187 03 42 17.55 +14 10 33.9   C51 – WISE MPS 313708
2010 02 10.395403 03 42 20.53 +14 11 06.0   C51 – WISE MPS 313708
2010 02 10.527707 03 42 26.48 +14 12 10.4   C51 – WISE MPS 313708
2010 02 10.660012 03 42 32.38 +14 13 14.1   C51 – WISE MPS 313708
2010 02 10.792443 03 42 38.35 +14 14 19.3   C51 – WISE MPS 313708
2010 02 10.924748 03 42 44.23 +14 15 24.6   C51 – WISE MPS 313708
2011 03 30.29445 11 44 23.314 +22 48 43.51 20.5 i F51 – Pan-STARRS 1, Haleakala MPS 623305
2011 03 30.30662 11 44 22.781 +22 48 45.21 20.5 i F51 – Pan-STARRS 1, Haleakala MPS 623305
2011 03 30.33116 11 44 21.712 +22 48 48.86 20.7 g F51 – Pan-STARRS 1, Haleakala MPS 623305
2011 04 06.25464 11 39 46.18 +22 59 09.5 21.0 V G96 – Mt. Lemmon Survey MPS 623305
2011 04 06.25873 11 39 46.04 +22 59 09.8 21.2 V G96 – Mt. Lemmon Survey MPS 623305
2011 04 06.26284 11 39 45.86 +22 59 10.1 21.1 V G96 – Mt. Lemmon Survey MPS 623305
2011 04 06.26694 11 39 45.72 +22 59 09.9 20.8 V G96 – Mt. Lemmon Survey MPS 623305
2012 06 13.33798 16 03 34.332 -10 34 51.35 21.4 w F51 – Pan-STARRS 1, Haleakala MPS 623305
2012 06 13.35273 16 03 33.679 -10 34 52.48 21.0 w F51 – Pan-STARRS 1, Haleakala MPS 623305
2012 06 13.38223 16 03 32.400 -10 34 55.39 21.5 w F51 – Pan-STARRS 1, Haleakala MPS 623305
2013 07 13.45572 20 19 38.477 -26 08 09.85 21.2 w F51 – Pan-STARRS 1, Haleakala MPS 623305
2013 07 13.50375 20 19 36.183 -26 08 25.37 21.0 w F51 – Pan-STARRS 1, Haleakala MPS 623305
2013 08 02.40898 20 03 32.969 -27 46 02.76 21.5 w F51 – Pan-STARRS 1, Haleakala MPS 623305
2013 08 02.42262 20 03 32.283 -27 46 06.15 21.3 w F51 – Pan-STARRS 1, Haleakala MPS 623305
2013 08 02.43628 20 03 31.620 -27 46 09.53 21.3 w F51 – Pan-STARRS 1, Haleakala MPS 623305
2015 12 06.51775 08 28 58.79 +21 57 58.8 20.6 V G96 – Mt. Lemmon Survey MPS 657266
2015 12 06.52336 08 28 58.77 +21 58 00.8 20.5 V G96 – Mt. Lemmon Survey MPS 657266
2015 12 06.52897 08 28 58.79 +21 58 02.7 20.5 V G96 – Mt. Lemmon Survey MPS 657266
2015 12 06.53458 08 28 58.78 +21 58 04.8 20.5 V G96 – Mt. Lemmon Survey MPS 657266
2015 12 23.44093 08 25 11.358 +23 57 04.11 19.7 i F51 – Pan-STARRS 1, Haleakala MPS 663960
2015 12 23.46514 08 25 10.638 +23 57 15.83 19.7 i F51 – Pan-STARRS 1, Haleakala MPS 663960
2015 12 23.47724 08 25 10.278 +23 57 21.76 19.6 i F51 – Pan-STARRS 1, Haleakala MPS 663960
2015 12 31.73487 08 20 30.71 +25 05 46.3 20.7 R D29 – Purple Mountain Observatory, XuYi Station MPS 663960
2015 12 31.75251 08 20 29.95 +25 05 54.9 20.1 R D29 – Purple Mountain Observatory, XuYi Station MPS 663960
2016 01 02.59152 08 19 14.655 +25 21 37.97 19.6 r F51 – Pan-STARRS 1, Haleakala MPS 665519
2016 01 02.60460 08 19 14.082 +25 21 44.72 19.5 r F51 – Pan-STARRS 1, Haleakala MPS 665519
2016 01 02.61785 08 19 13.498 +25 21 51.34 19.6 r F51 – Pan-STARRS 1, Haleakala MPS 665519
2016 01 02.63107 08 19 12.923 +25 21 57.94 19.8 r F51 – Pan-STARRS 1, Haleakala MPS 665519
2016 01 12.31635 08 11 36.37 +26 44 37.6 19.7 V 703 – Catalina Sky Survey MPS 668464
2016 01 12.32085 08 11 36.10 +26 44 39.6 19.4 V 703 – Catalina Sky Survey MPS 668464
2016 01 12.32536 08 11 35.91 +26 44 41.6 19.2 V 703 – Catalina Sky Survey MPS 668464
2016 01 12.32986 08 11 35.57 +26 44 44.2 19.3 V 703 – Catalina Sky Survey MPS 668464
2016 01 17.35980 08 07 11.592 +27 26 02.68 19.9 r F51 – Pan-STARRS 1, Haleakala MPS 671858
2016 01 17.37149 08 07 10.944 +27 26 08.42 19.6 r F51 – Pan-STARRS 1, Haleakala MPS 671858
2016 01 17.38358 08 07 10.273 +27 26 14.29 19.5 r F51 – Pan-STARRS 1, Haleakala MPS 671858
2016 01 17.39536 08 07 09.614 +27 26 19.97 19.3 r F51 – Pan-STARRS 1, Haleakala MPS 671858
2016 01 28.26120 07 57 30.25 +28 46 27.2 18.8 V 703 – Catalina Sky Survey MPS 674021
2016 01 28.26572 07 57 29.99 +28 46 31.0 18.7 V 703 – Catalina Sky Survey MPS 674021
2016 01 28.27025 07 57 29.85 +28 46 33.9 19.3 V 703 – Catalina Sky Survey MPS 674021
2016 01 28.27477 07 57 29.49 +28 46 36.7 19.7 V 703 – Catalina Sky Survey MPS 674021
2016 01 29.24626 07 56 39.66 +28 52 59.3 19.9 V 703 – Catalina Sky Survey MPS 674021
2016 01 29.25527 07 56 39.18 +28 53 03.0 19.6 V 703 – Catalina Sky Survey MPS 674021
2016 01 29.25977 07 56 38.88 +28 53 04.9 19.6 V 703 – Catalina Sky Survey MPS 674021
2016 02 09.10562 07 48 16.16 +29 54 07.0 19.7 r G45 – Space Surveillance Telescope, Atom Site MPS 679122
2016 02 09.11070 07 48 15.97 +29 54 08.4 19.9 r G45 – Space Surveillance Telescope, Atom Site MPS 679122
2016 02 09.11562 07 48 15.72 +29 54 10.1 20.2 r G45 – Space Surveillance Telescope, Atom Site MPS 679122
2016 02 09.12054 07 48 15.55 +29 54 11.7 20.4 r G45 – Space Surveillance Telescope, Atom Site MPS 679122
2016 02 09.12542 07 48 15.31 +29 54 12.7 20.5 r G45 – Space Surveillance Telescope, Atom Site MPS 679122
2016 02 09.27256 07 48 09.422 +29 54 55.61 19.9 w F51 – Pan-STARRS 1, Haleakala MPS 679122
2016 02 09.28674 07 48 08.823 +29 54 59.75 20.0 w F51 – Pan-STARRS 1, Haleakala MPS 679122
2016 02 09.30103 07 48 08.215 +29 55 03.85 20.2 w F51 – Pan-STARRS 1, Haleakala MPS 679122
2016 02 12.08856 07 46 21.86 +30 07 26.1 20.3 r G45 – Space Surveillance Telescope, Atom Site MPS 682583
2016 02 12.09345 07 46 21.59 +30 07 27.2 20.3 r G45 – Space Surveillance Telescope, Atom Site MPS 682583
2016 02 12.09857 07 46 21.49 +30 07 28.5 20.3 r G45 – Space Surveillance Telescope, Atom Site MPS 682583
2016 02 12.10348 07 46 21.30 +30 07 29.8 20.3 r G45 – Space Surveillance Telescope, Atom Site MPS 682583
2016 03 31.26478 07 49 55.685 +30 47 42.22 21.6 w F51 – Pan-STARRS 1, Haleakala MPS 698676
2016 03 31.27558 07 49 56.143 +30 47 41.13 21.3 w F51 – Pan-STARRS 1, Haleakala MPS 698676
2016 03 31.28634 07 49 56.577 +30 47 40.03 21.1 w F51 – Pan-STARRS 1, Haleakala MPS 698676
